Waarnemingen

Advertentie
Mijn weer
F3, Nederland (6239): temperatuur & dauwpunt: 21.03.2017 06:00:00 - 27.03.2017 06:00:00 (CEST)F3, Nederland (6239): windsnelheid & windstoten: 21.03.2017 06:00:00 - 27.03.2017 06:00:00 (CEST)F3, Nederland (6239): windrichting: 21.03.2017 06:00:00 - 27.03.2017 06:00:00 (CEST)F3, Nederland (6239): luchtdruk: 21.03.2017 06:00:00 - 27.03.2017 06:00:00 (CEST)F3, Nederland (6239): zicht: 21.03.2017 06:00:00 - 27.03.2017 06:00:00 (CEST)
Datum & Tijd tt [°C] td [°C] ff [km/u] ff [kn] fx [km/u] fx [kn] dd ppp [hPa] vv [km]
27.03.2017 06:00:00 5,7 3,6 5 3 11 6 ZZO 1026,3 10
27.03.2017 05:00:00 5,6 4,0 4 2 11 6 - 1026,3 10
27.03.2017 04:00:00 5,5 4,6 8 4 11 6 ZZO 1026,7 10
27.03.2017 03:00:00 5,8 5,0 5 3 11 6 ZZO 1027,2 10
27.03.2017 02:00:00 5,7 4,8 9 5 14 8 OZO 1027,5 10
27.03.2017 01:00:00 5,5 4,5 11 6 14 8 O 1027,6 10
27.03.2017 00:00:00 5,6 4,5 13 7 14 8 O 1027,7 10
26.03.2017 23:00:00 5,7 4,6 11 6 14 8 NO 1027,7 10
26.03.2017 22:00:00 5,9 5,1 8 4 11 6 NO 1027,7 10
26.03.2017 21:00:00 5,8 5,2 11 6 14 8 NO 1027,7 10
26.03.2017 20:00:00 6,2 4,7 11 6 14 8 ONO 1027,3 10
26.03.2017 19:00:00 6,0 5,0 13 7 18 10 NO 1027,2 10
26.03.2017 18:00:00 6,2 5,0 18 10 18 10 NO 1027,3 10
26.03.2017 17:00:00 6,6 5,5 18 10 18 10 NO 1027,6 10
26.03.2017 16:00:00 6,6 5,9 16 9 22 12 NO 1027,8 10
26.03.2017 15:00:00 6,7 6,0 9 5 18 10 - 1028,0 10
26.03.2017 14:00:00 6,4 6,2 9 5 18 10 N 1028,3 5
26.03.2017 13:00:00 6,3 5,9 8 4 14 8 N 1028,5 10
26.03.2017 12:00:00 6,4 6,1 13 7 18 10 NNO 1028,7 10
26.03.2017 11:00:00 6,4 5,7 15 8 18 10 NNO 1028,5 10
26.03.2017 10:00:00 5,9 5,8 22 12 29 16 NO 1028,4 10
26.03.2017 09:00:00 5,1 4,9 26 14 29 16 NNO 1028,0 0,1
26.03.2017 08:00:00 6,3 5,6 16 9 18 10 NNO 1027,6 10
26.03.2017 07:00:00 6,5 5,7 16 9 22 12 NNO 1027,5 10
26.03.2017 06:00:00 6,6 5,8 4 2 18 10 - 1027,6 10
26.03.2017 05:00:00 6,7 5,5 8 4 18 10 - 1027,9 10
26.03.2017 04:00:00 6,7 5,3 13 7 18 10 NNW 1028,1 10
26.03.2017 03:00:00 6,6 5,6 13 7 18 10 NNW 1028,2 10
26.03.2017 02:00:00 6,6 5,8 9 5 14 8 NNW 1028,7 10
26.03.2017 01:00:00 6,6 5,7 9 5 14 8 - 1029,1 10
26.03.2017 00:00:00 6,7 5,9 9 5 11 6 NNW 1029,6 10
25.03.2017 23:00:00 6,8 5,9 4 2 11 6 - 1029,9 10
25.03.2017 22:00:00 6,7 6,0 13 7 14 8 NNW 1029,9 10
25.03.2017 21:00:00 6,7 6,1 11 6 11 6 NNW 1029,3 10
25.03.2017 20:00:00 6,7 6,0 13 7 14 8 NNW 1029,5 10
25.03.2017 19:00:00 6,9 5,9 18 10 18 10 NNW 1029,7 10
25.03.2017 18:00:00 7,0 5,7 13 7 14 8 NW 1030,0 10
25.03.2017 17:00:00 6,8 5,6 11 6 14 8 WNW 1030,5 10
25.03.2017 16:00:00 6,7 5,3 15 8 18 10 WNW 1031,2 10
25.03.2017 15:00:00 6,8 5,1 16 9 14 8 WNW 1032,4 10
25.03.2017 14:00:00 6,7 4,8 13 7 14 8 WNW 1033,1 10
25.03.2017 13:00:00 6,6 4,6 13 7 14 8 WNW 1033,4 10
25.03.2017 12:00:00 6,5 4,2 15 8 18 10 NW 1033,6 10
25.03.2017 11:00:00 6,5 3,7 18 10 18 10 NW 1033,5 10
25.03.2017 10:00:00 6,3 3,8 18 10 22 12 WNW 1033,6 10
25.03.2017 09:00:00 6,2 3,9 21 11 22 12 WNW 1033,5 10
25.03.2017 08:00:00 6,1 4,0 18 10 18 10 WNW 1033,6 10
25.03.2017 07:00:00 6,0 4,2 16 9 18 10 W 1033,6 10
25.03.2017 06:00:00 6,0 4,1 15 8 14 8 W 1033,6 10
25.03.2017 05:00:00 6,0 4,2 13 7 11 6 WNW 1033,9 10
25.03.2017 04:00:00 6,0 4,3 13 7 14 8 WNW 1034,7 10
25.03.2017 03:00:00 6,0 4,2 13 7 14 8 W 1035,0 10
25.03.2017 02:00:00 5,9 3,7 11 6 11 6 WNW 1035,1 10
25.03.2017 01:00:00 5,9 3,5 9 5 11 6 WNW 1035,2 10
25.03.2017 00:00:00 5,9 3,4 9 5 11 6 NNW 1034,9 10
24.03.2017 23:00:00 5,9 3,1 8 4 11 6 NNW 1035,1 10
24.03.2017 22:00:00 5,9 3,0 9 5 11 6 NNW 1035,1 10
24.03.2017 21:00:00 5,8 3,0 5 3 7 4 WNW 1035,0 10
24.03.2017 20:00:00 5,8 2,9 5 3 11 6 NNW 1034,6 10
24.03.2017 19:00:00 5,9 2,7 4 2 25 14 - 1034,5 10
24.03.2017 18:00:00 6,3 2,7 2 1 4 2 - 1034,4 10
24.03.2017 17:00:00 6,2 2,4 4 2 7 4 O 1034,4 10
24.03.2017 16:00:00 6,1 2,6 8 4 11 6 ONO 1034,6 10
24.03.2017 15:00:00 5,9 2,4 8 4 7 4 O 1034,6 10
24.03.2017 14:00:00 5,8 2,6 9 5 11 6 O 1034,5 10
24.03.2017 13:00:00 5,7 2,5 11 6 14 8 ONO 1034,2 10
24.03.2017 12:00:00 5,6 2,3 16 9 18 10 ONO 1033,5 10
24.03.2017 11:00:00 5,6 2,4 16 9 22 12 ONO 1033,2 10
24.03.2017 10:00:00 5,5 2,4 18 10 18 10 ONO 1032,6 10
24.03.2017 09:00:00 5,5 2,3 18 10 22 12 ONO 1032,3 10
24.03.2017 08:00:00 5,4 2,0 21 11 22 12 ONO 1031,7 10
24.03.2017 07:00:00 5,4 1,5 21 11 22 12 ONO 1031,1 10
24.03.2017 06:00:00 5,4 1,4 26 14 25 14 NO 1030,4 10
24.03.2017 05:00:00 5,5 1,4 26 14 25 14 NO 1030,3 10
24.03.2017 04:00:00 5,4 1,6 26 14 25 14 NO 1029,8 10
24.03.2017 03:00:00 5,4 1,5 29 16 29 16 NO 1029,6 10
24.03.2017 02:00:00 5,4 0,9 29 16 29 16 NO 1028,9 10
24.03.2017 01:00:00 5,4 1,0 31 17 32 18 NO 1028,7 10
24.03.2017 00:00:00 5,5 1,5 34 18 36 19 NO 1028,3 10
23.03.2017 23:00:00 5,5 1,4 39 21 36 19 NO 1027,9 10
23.03.2017 22:00:00 5,5 0,9 41 22 40 21 NO 1027,0 10
23.03.2017 21:00:00 5,7 1,1 42 23 40 21 NO 1026,5 10
23.03.2017 20:00:00 5,9 1,6 44 24 43 23 NO 1025,5 10
23.03.2017 19:00:00 5,9 2,3 46 25 43 23 NO 1024,4 10
23.03.2017 18:00:00 6,1 2,9 44 24 43 23 NO 1023,8 10
23.03.2017 17:00:00 6,0 3,1 42 23 43 23 NO 1023,5 10
23.03.2017 16:00:00 6,2 3,6 39 21 36 19 NO 1023,5 10
23.03.2017 15:00:00 6,3 3,8 39 21 40 21 ONO 1023,5 10
23.03.2017 14:00:00 6,1 3,7 42 23 43 23 ONO 1023,4 10
23.03.2017 13:00:00 5,8 3,9 42 23 43 23 ONO 1022,6 10
23.03.2017 12:00:00 6,0 4,3 48 26 47 25 ONO 1022,4 10
23.03.2017 11:00:00 6,0 4,1 46 25 43 23 ONO 1021,6 10
23.03.2017 10:00:00 6,0 4,2 42 23 43 23 ONO 1021,3 10
23.03.2017 09:00:00 6,3 4,5 44 24 40 21 ONO 1020,7 10
23.03.2017 08:00:00 6,3 4,2 39 21 40 21 ONO 1020,3 10
23.03.2017 07:00:00 6,4 4,2 37 20 36 19 ONO 1019,6 10
23.03.2017 06:00:00 6,4 3,9 35 19 32 18 O 1019,0 10
23.03.2017 05:00:00 6,5 3,5 34 18 36 19 O 1018,8 10
23.03.2017 04:00:00 6,6 3,3 37 20 36 19 O 1018,3 10
23.03.2017 03:00:00 6,7 3,3 35 19 36 19 O 1018,4 10
23.03.2017 02:00:00 6,7 2,8 37 20 36 19 O 1018,0 10
23.03.2017 01:00:00 6,8 2,9 37 20 36 19 O 1017,7 10
23.03.2017 00:00:00 6,8 2,5 34 18 36 19 O 1017,7 10
22.03.2017 23:00:00 7,1 2,4 31 17 29 16 O 1017,4 10
22.03.2017 22:00:00 7,0 2,4 29 16 29 16 O 1017,0 10
22.03.2017 21:00:00 6,6 3,5 26 14 25 14 O 1016,6 10
22.03.2017 20:00:00 6,5 4,4 21 11 18 10 ZO 1016,4 10
22.03.2017 19:00:00 6,7 4,5 21 11 32 18 - 1015,6 10
22.03.2017 18:00:00 6,9 4,3 21 11 22 12 ZO 1014,7 10
22.03.2017 17:00:00 7,2 4,2 22 12 22 12 ZO 1014,6 10
22.03.2017 16:00:00 7,4 4,4 18 10 22 12 ZZO 1014,4 18
22.03.2017 15:00:00 7,2 4,8 21 11 22 12 Z 1014,3 10
22.03.2017 14:00:00 7,1 4,9 22 12 25 14 Z 1014,0 10
22.03.2017 13:00:00 7,1 5,3 26 14 25 14 Z 1013,6 10
22.03.2017 12:00:00 6,8 5,0 24 13 25 14 Z 1013,2 10
22.03.2017 11:00:00 6,5 4,8 26 14 25 14 ZZW 1012,5 10
22.03.2017 10:00:00 6,5 4,8 22 12 47 25 ZZW 1011,6 10
22.03.2017 09:00:00 6,5 4,1 24 13 25 14 ZW 1010,8 10
22.03.2017 08:00:00 6,4 4,3 26 14 29 16 ZZW 1010,1 10
22.03.2017 07:00:00 6,6 3,8 31 17 29 16 ZW 1009,6 10
22.03.2017 06:00:00 6,5 4,2 31 17 29 16 ZW 1009,4 10
22.03.2017 05:00:00 6,7 3,3 34 18 32 18 ZW 1008,9 10
22.03.2017 04:00:00 6,5 3,7 31 17 32 18 ZW 1008,6 10
22.03.2017 03:00:00 6,6 3,7 34 18 32 18 WZW 1008,6 10
22.03.2017 02:00:00 6,5 4,2 34 18 32 18 ZW 1008,4 10
22.03.2017 01:00:00 6,5 3,6 37 20 40 21 ZW 1008,0 10
22.03.2017 00:00:00 6,5 2,7 42 23 40 21 ZW 1007,6 10
21.03.2017 23:00:00 6,5 2,4 41 22 43 23 WZW 1007,1 10
21.03.2017 22:00:00 6,5 2,2 50 27 58 31 WZW 1006,6 10
21.03.2017 21:00:00 6,6 0,6 54 29 61 33 WZW 1005,6 10
21.03.2017 20:00:00 6,7 -0,3 57 31 - - WZW 1004,5 10
21.03.2017 19:00:00 6,8 -0,1 67 36 65 35 WZW 1003,7 10
21.03.2017 18:00:00 6,5 0,5 63 34 68 37 WZW 1003,5 10
21.03.2017 17:00:00 6,1 0,8 68 37 68 37 WZW 1002,8 10
21.03.2017 16:00:00 6,1 -0,9 68 37 72 39 W 1002,2 10
21.03.2017 15:00:00 5,9 -0,2 58 31 - - WZW 1001,9 18
21.03.2017 14:00:00 5,9 -0,8 65 35 68 37 W 1001,5 10
21.03.2017 13:00:00 5,3 0,6 63 34 65 35 W 1000,6 10
21.03.2017 12:00:00 5,9 0,5 63 34 72 39 W 999,7 10
21.03.2017 11:00:00 5,5 1,5 63 34 68 37 W 999,1 10
21.03.2017 10:00:00 5,4 2,0 52 28 65 35 W 998,1 10
21.03.2017 09:00:00 6,3 3,0 48 26 65 35 W 997,4 10
21.03.2017 08:00:00 6,6 3,9 46 25 54 29 WZW 997,5 10
21.03.2017 07:00:00 6,7 4,1 44 24 47 25 WZW 997,7 10
21.03.2017 06:00:00 - - - - - - - - -

tt = temperatuur
td = dauwpunt
ff = windsnelheid
fx = windstoten
dd = windrichting
ppp = luchtdruk
vv = zicht

Weerstations in de omgeving